Simultaneous Nadir Overpasses (SNOs) Predictions

Prediction of SNOs between METOP-A and NOAA-19 Satellite Orbit:

Table of predicted SNOs for the next 14.0 days since TLE Epoch: 12/18/2011
Index Date Time (METOP-A) METOP-A Lat,Lon NOAA-19 Lat,Lon Distance(km) Time Diff (sec)
1 12/21/2011 02:43:02 -75.48, -42.07 -75.51, -54.74 352.31 32
2 12/21/2011 03:34:10 74.14, 121.52 74.18, 116.32 157.73 59
3 12/21/2011 04:25:03 -73.57, -72.54 -73.57, -74.91 74.52 68
4 12/21/2011 05:15:54 73.03, 93.57 73.01, 93.59 1.73 61
5 12/21/2011 06:06:36 -73.01, -99.14 -73.00, -99.12 1.45 47
6 12/21/2011 06:57:17 72.97, 68.10 72.98, 68.13 2.28 19
7 12/21/2011 07:47:59 -72.94,-124.62 -72.97,-124.57 3.04 5
8 12/21/2011 08:38:39 72.95, 42.73 72.95, 42.67 1.95 24
9 12/21/2011 09:29:21 -72.93,-149.99 -72.94,-150.03 1.57 38
10 12/21/2011 10:20:02 72.89, 17.25 72.87, 17.32 2.78 65
11 12/21/2011 11:10:48 -72.67,-175.89 -72.71,-175.06 27.83 72
12 12/21/2011 12:01:51 71.49, -10.83 71.52, -5.51 187.66 55
13 12/21/2011 12:52:46 -70.79, 155.30 -70.84, 162.96 279.57 43
14 12/30/2011 23:13:54 -75.19, 9.40 -75.20, -1.48 308.95 39
15 12/31/2011 00:05:00 73.93, 173.34 73.94, 169.22 126.74 63
16 12/31/2011 00:55:54 -73.33, -20.77 -73.35, -22.09 42.36 72
17 12/31/2011 01:46:40 73.02, 145.90 73.02, 145.86 1.34 56
18 12/31/2011 02:37:22 -73.02, -46.79 -73.02, -46.88 2.89 41
19 12/31/2011 03:28:03 72.96, 120.43 72.99, 120.40 3.05 14
20 12/31/2011 04:18:45 -72.96, -72.26 -72.94, -72.23 2.15 0
21 12/31/2011 05:09:26 72.91, 94.96 72.91, 95.05 2.88 27
22 12/31/2011 06:00:08 -72.90, -97.73 -72.91, -97.69 1.77 42
23 12/31/2011 06:50:48 72.90, 69.60 72.88, 69.59 1.66 70
24 12/31/2011 07:41:38 -72.48,-123.93 -72.53,-122.41 51.02 70
25 12/31/2011 08:32:41 71.29, 41.16 71.32, 47.13 212.99 52




NCC Satellite Simultaneous Nadir Overpasses (SNOs) Prediction Service
